• In Russia
  • List of Countries
  • For 7 days
  • Water Temperature
  • Satellite Maps
  • Weather Map
  • Weather Widgets
  • user-avatar
    Login

    Hourly Weather Varadero

    Today, 20 May, Sunday

    Time Temperature Precipitation Wind Pressure Humidity
    00:00 +24°C° 0.6 mm 6 mps 761 mmHg 85%
    01:00 +25°C° 0 mm 5 mps 761 mmHg 86%
    02:00 +25°C° 0.4 mm 5 mps 761 mmHg 86%
    03:00 +24°C° 0.4 mm 6 mps 761 mmHg 86%
    04:00 +24°C° 0.4 mm 6 mps 760 mmHg 86%
    05:00 +24°C° 0.6 mm 6 mps 761 mmHg 85%
    06:00 +26°C° 0.6 mm 6 mps 761 mmHg 85%
    07:00 +26°C° 0.6 mm 6 mps 761 mmHg 84%
    08:00 +27°C° 0.7 mm 6 mps 761 mmHg 79%
    09:00 +28°C° 0.7 mm 7 mps 761 mmHg 74%
    10:00 +30°C° 0.7 mm 7 mps 762 mmHg 69%
    11:00 +30°C° 0.7 mm 7 mps 761 mmHg 66%
    12:00 +32°C° 0.7 mm 7 mps 761 mmHg 63%
    13:00 +33°C° 0.7 mm 7 mps 761 mmHg 59%
    14:00 +33°C° 0.4 mm 7 mps 761 mmHg 61%
    15:00 +32°C° 0.4 mm 7 mps 760 mmHg 63%
    16:00 +32°C° 0.4 mm 7 mps 760 mmHg 65%
    17:00 +30°C° 0.3 mm 7 mps 760 mmHg 70%
    18:00 +29°C° 0.3 mm 7 mps 760 mmHg 74%
    19:00 +27°C° 0.3 mm 6 mps 760 mmHg 79%
    20:00 +27°C° 0.2 mm 6 mps 760 mmHg 80%
    21:00 +27°C° 0.2 mm 6 mps 761 mmHg 81%
    22:00 +27°C° 0.2 mm 6 mps 761 mmHg 83%
    23:00 +26°C° 0.5 mm 6 mps 761 mmHg 83%

    Tomorrow, 21 May, Monday

    Time Temperature Precipitation Wind Pressure Humidity
    00:00 +26°C° 0.5 mm 6 mps 761 mmHg 84%
    01:00 +26°C° 0.5 mm 6 mps 760 mmHg 85%
    02:00 +26°C° 0.5 mm 6 mps 760 mmHg 86%
    03:00 +25°C° 0.5 mm 5 mps 760 mmHg 87%
    04:00 +25°C° 0.5 mm 5 mps 759 mmHg 88%
    05:00 +26°C° 0.2 mm 5 mps 760 mmHg 86%
    06:00 +26°C° 0.2 mm 5 mps 760 mmHg 85%
    07:00 +26°C° 0.2 mm 5 mps 760 mmHg 83%
    08:00 +28°C° 0.2 mm 5 mps 760 mmHg 76%
    09:00 +30°C° 0.2 mm 5 mps 760 mmHg 69%
    10:00 +32°C° 0.2 mm 5 mps 761 mmHg 61%
    11:00 +33°C° 1 mm 5 mps 761 mmHg 59%
    12:00 +34°C° 1 mm 5 mps 760 mmHg 57%
    13:00 +34°C° 1 mm 5 mps 760 mmHg 55%
    14:00 +33°C° 1.7 mm 5 mps 760 mmHg 60%
    15:00 +33°C° 1.7 mm 5 mps 759 mmHg 64%
    16:00 +32°C° 1.7 mm 5 mps 759 mmHg 68%
    17:00 +30°C° 2.3 mm 5 mps 759 mmHg 73%
    18:00 +29°C° 2.3 mm 6 mps 759 mmHg 77%
    19:00 +28°C° 2.3 mm 6 mps 759 mmHg 81%
    20:00 +27°C° 1.6 mm 6 mps 760 mmHg 83%
    21:00 +27°C° 1.6 mm 6 mps 760 mmHg 84%
    22:00 +26°C° 1.6 mm 6 mps 761 mmHg 85%
    23:00 +26°C° 0.8 mm 6 mps 760 mmHg 86%

    Day after tomorrow, 22 May, Tuesday

    Time Temperature Precipitation Wind Pressure Humidity
    00:00 +26°C° 0.8 mm 6 mps 760 mmHg 87%
    01:00 +26°C° 0.8 mm 6 mps 760 mmHg 87%
    02:00 +26°C° 0.6 mm 6 mps 760 mmHg 88%
    03:00 +26°C° 0.6 mm 5 mps 759 mmHg 88%
    04:00 +26°C° 0.6 mm 5 mps 759 mmHg 89%
    05:00 +26°C° 0.4 mm 5 mps 759 mmHg 88%
    06:00 +26°C° 0.4 mm 5 mps 759 mmHg 86%
    07:00 +26°C° 0.4 mm 5 mps 760 mmHg 85%
    08:00 +28°C° 0.5 mm 5 mps 760 mmHg 79%
    09:00 +29°C° 0.5 mm 5 mps 760 mmHg 74%
    10:00 +30°C° 0.5 mm 5 mps 760 mmHg 68%
    11:00 +30°C° 1.1 mm 5 mps 760 mmHg 68%
    12:00 +32°C° 1.1 mm 5 mps 760 mmHg 67%
    13:00 +32°C° 1.1 mm 5 mps 760 mmHg 66%
    14:00 +30°C° 1 mm 5 mps 760 mmHg 69%
    15:00 +29°C° 1 mm 5 mps 760 mmHg 71%
    16:00 +29°C° 1 mm 5 mps 759 mmHg 73%
    17:00 +28°C° 0.3 mm 5 mps 759 mmHg 77%
    18:00 +27°C° 0.3 mm 5 mps 760 mmHg 80%
    19:00 +27°C° 0.3 mm 5 mps 760 mmHg 83%
    20:00 +27°C° 0.4 mm 5 mps 760 mmHg 83%
    21:00 +27°C° 0.4 mm 5 mps 761 mmHg 84%
    22:00 +27°C° 0.4 mm 6 mps 761 mmHg 84%
    23:00 +26°C° 0.6 mm 5 mps 761 mmHg 86%

    23 May, Wednesday

    Time Temperature Precipitation Wind Pressure Humidity
    00:00 +26°C° 0.6 mm 5 mps 761 mmHg 87%
    01:00 +26°C° 0.6 mm 5 mps 760 mmHg 88%
    02:00 +26°C° 0.3 mm 5 mps 760 mmHg 88%
    03:00 +26°C° 0.3 mm 4 mps 760 mmHg 89%
    04:00 +26°C° 0.3 mm 4 mps 760 mmHg 90%
    05:00 +26°C° 0.6 mm 4 mps 760 mmHg 90%
    06:00 +26°C° 0.6 mm 4 mps 760 mmHg 90%
    07:00 +26°C° 0.6 mm 3 mps 760 mmHg 90%
    08:00 +26°C° 0.9 mm 3 mps 761 mmHg 89%
    09:00 +27°C° 0.9 mm 3 mps 761 mmHg 88%
    10:00 +27°C° 0.9 mm 3 mps 761 mmHg 87%
    11:00 +27°C° 1.2 mm 3 mps 761 mmHg 87%
    12:00 +26°C° 1.2 mm 2 mps 761 mmHg 88%
    13:00 +26°C° 1.2 mm 2 mps 761 mmHg 88%
    14:00 +26°C° 0.9 mm 2 mps 760 mmHg 89%
    15:00 +26°C° 0.9 mm 2 mps 760 mmHg 89%
    16:00 +26°C° 0.9 mm 2 mps 760 mmHg 90%
    17:00 +25°C° 0.5 mm 2 mps 760 mmHg 91%
    18:00 +25°C° 0.5 mm 3 mps 760 mmHg 91%
    19:00 +25°C° 0.5 mm 3 mps 761 mmHg 92%
    20:00 +25°C° 0.2 mm 3 mps 761 mmHg 92%
    21:00 +25°C° 0.2 mm 4 mps 761 mmHg 92%
    22:00 +25°C° 0.2 mm 4 mps 762 mmHg 91%
    23:00 +25°C° 0.4 mm 4 mps 761 mmHg 91%

    24 May, Thursday

    Time Temperature Precipitation Wind Pressure Humidity
    00:00 +25°C° 0.4 mm 4 mps 761 mmHg 91%
    01:00 +25°C° 0.4 mm 4 mps 761 mmHg 91%
    02:00 +25°C° 0.6 mm 4 mps 760 mmHg 91%
    03:00 +25°C° 0.6 mm 4 mps 760 mmHg 92%
    04:00 +25°C° 0.6 mm 4 mps 760 mmHg 92%
    05:00 +25°C° 1.8 mm 4 mps 760 mmHg 93%
    06:00 +25°C° 1.8 mm 4 mps 760 mmHg 93%
    07:00 +25°C° 1.8 mm 4 mps 761 mmHg 93%
    08:00 +25°C° 2.1 mm 4 mps 761 mmHg 92%
    09:00 +25°C° 2.1 mm 5 mps 761 mmHg 92%
    10:00 +25°C° 2.1 mm 5 mps 761 mmHg 91%
    11:00 +25°C° 2.2 mm 5 mps 761 mmHg 91%
    12:00 +25°C° 2.2 mm 5 mps 761 mmHg 90%
    13:00 +26°C° 2.2 mm 4 mps 760 mmHg 90%
    14:00 +26°C° 1.7 mm 5 mps 760 mmHg 90%
    15:00 +26°C° 1.7 mm 5 mps 760 mmHg 91%
    16:00 +25°C° 1.7 mm 5 mps 759 mmHg 91%
    17:00 +24°C° 2 mm 6 mps 759 mmHg 91%
    18:00 +24°C° 2 mm 6 mps 759 mmHg 92%
    19:00 +24°C° 2 mm 6 mps 760 mmHg 92%
    20:00 +24°C° 2 mm 7 mps 760 mmHg 92%
    21:00 +24°C° 2 mm 7 mps 760 mmHg 92%
    22:00 +24°C° 2 mm 7 mps 760 mmHg 92%
    23:00 +24°C° 2.5 mm 8 mps 760 mmHg 92%

    25 May, Friday

    Time Temperature Precipitation Wind Pressure Humidity
    00:00 +24°C° 2.5 mm 8 mps 759 mmHg 92%
    01:00 +24°C° 2.5 mm 8 mps 759 mmHg 92%
    02:00 +24°C° 3.3 mm 8 mps 758 mmHg 92%
    03:00 +24°C° 3.3 mm 8 mps 758 mmHg 92%
    04:00 +24°C° 3.3 mm 9 mps 758 mmHg 93%
    05:00 +24°C° 5.5 mm 8 mps 758 mmHg 93%
    06:00 +24°C° 5.5 mm 8 mps 758 mmHg 93%
    07:00 +24°C° 5.5 mm 8 mps 758 mmHg 93%
    08:00 +24°C° 4.3 mm 8 mps 758 mmHg 92%
    09:00 +26°C° 4.3 mm 8 mps 758 mmHg 90%
    10:00 +26°C° 4.3 mm 7 mps 758 mmHg 89%
    11:00 +27°C° 3.2 mm 7 mps 758 mmHg 86%
    12:00 +28°C° 3.2 mm 7 mps 757 mmHg 83%
    13:00 +29°C° 3.2 mm 7 mps 757 mmHg 81%
    14:00 +28°C° 1.4 mm 7 mps 756 mmHg 82%
    15:00 +28°C° 1.4 mm 7 mps 756 mmHg 84%
    16:00 +28°C° 1.4 mm 6 mps 756 mmHg 86%
    17:00 +27°C° 0.8 mm 7 mps 756 mmHg 87%
    18:00 +26°C° 0.8 mm 7 mps 756 mmHg 89%
    19:00 +26°C° 0.8 mm 8 mps 756 mmHg 91%
    20:00 +24°C° 0.2 mm 8 mps 756 mmHg 92%
    21:00 +24°C° 0.2 mm 8 mps 756 mmHg 92%
    22:00 +24°C° 0.2 mm 8 mps 757 mmHg 93%
    23:00 +24°C° 0.1 mm 8 mps 756 mmHg 94%
    Show more